User: anonymous   Login
Location: Mohawk View
(42.7837°N, 73.7885°W)
Time: 21:51:56
(UTC+00:00)
Language:

deb Kosmos-2237 - Orbit

View from above orbital plane
View from above orbital plane
View from above satellite
View from above satellite

Ground track
Ground track

The orbit data is extracted from the following two-line orbital elements,

1 22604U 93016N   22022.50376998 -.00000034  00000-0  90288-5 0  9998
2 22604  70.9933  50.7315 0171096 207.7394 306.2959 13.76327674447942
Epoch (UTC): 22 January 2022 12:05:25
Eccentricity: 0.0171096
inclination: 70.9933°
perigee height: 851 km
apogee height: 1103 km
right ascension of ascending node: 50.7315°
argument of perigee: 207.7394°
revolutions per day: 13.76327674
mean anomaly at epoch: 306.2959°
orbit number at epoch: 44794

The dashed part of the orbit path shows where the satellite is in the earth's shadow,  

DLR